Location: Windsor
(43.2292°N, 89.3015°W)
Time: 17:57:54
(UTC+00:00)

DIWATA 2B (PO-101) - Pass Details

Date: 30 June 2022
Orbit: 583 x 599 km, 98.0° (Epoch: 18 August)

Event Time Altitude Azimuth Distance (km) Brightness Sun altitude
Exits shadow 07:56:26 37° 176° (S) 938 ? -18.5°
Maximum altitude 07:58:03 79° 256° (WSW) 616 ? -18.4°
Drops below altitude 10° 08:02:18 10° 345° (NNW) 1,949 ? -18.0°
Sets 08:04:29 0° 346° (NNW) 2,857 ? -17.8°
